Key statistics
Satellite CZ-6A DEB at a glance.
Uptime
721
Days in orbit
Revolutions
≈ 14.6
Per day
Orbit
SSO
Sun Synchronous Orbit
Inclination
98.7
Latest
Satellite identification and parameters
Extended collection of information and parameters for CZ-6A DEB.
Object identification
Identified? True
Debris? True
Object name: CZ-6A DEB
International designator: 2022-151HK
Object number (NORAD): 54483
Object ID (CCSDS): 54483
Country: PEOPLES REPUBLIC OF CHINA (PRC)
Current information (Y/N): Y
RCS size: SMALL
Orbital parameters
Decay date: Nov. 1, 2024
Period: 98.611 minutes
Inclination: 98.6686 deg
SMA: 7070.42 km
Apoapsis: 743.423 km
Periapsis: 641.147 km
RAAN: 69.2073 deg
Eccentricy: 0.0072327
Argument of periapsis: 1.1554 deg
Mean anomaly: 358.9798 deg
Mean motion: 14.6027601 rev/day
Mean motion (dot): 0.00077095 rev/day2
B* drag term: 0.015239 1/REarth
Two-line elements (TLE)
Creation date: Feb. 12, 2024, 3:07 a.m.
Reference frame: TEME
Reference center: EARTH
Epoch: Feb. 11, 2024, 7:29 p.m. UTC
TLE line 0: 0 CZ-6A DEB
TLE line 1: 1 54483U 22151HK 24042.81196134 .00077095 00000-0 15239-1 0 9999
TLE line 2: 2 54483 98.6686 69.2073 0072327 1.1554 358.9798 14.60276010 65796
Live tracking on map
Satellite CZ-6A DEB has decayed and is no longer in orbit. No tracking available.
In-orbit conjunctions
Satellite CZ-6A DEB has decayed and is no longer in orbit. No conjunctions available.
Associated space launch
Chinese satellite reported for atmospheric/ocean/environmental/spatial parameter research purposes, details TBD.
CZ-6A DEB was lifted into orbit during the mission ‘Long March 6A | Yunhai 3’, on board a Long March 6A space rocket.
The launch took place on Nov. 11, 2022, 10:52 p.m. from Launch Complex 9A.
For more information about the launch, click the button.
Long March 6A | Yunhai 3
Agency: N/A
Status: Launch Successful
Launch date: Nov. 11, 2022, 10:52 p.m. UTC
Rocket: Long March 6A
Launch pad: Launch Complex 9A
Location: Taiyuan Satellite Launch Center, People's Republic of China
...
Latest news about this satellite
There are no fresh news available about this satellite. Check back as we update our databases every day.
Newsletter sign-up
Weekly statistics, charts and insights to help you stay on top of the space industry.
